When you browse on this site, cookies collect data to enhance your experience and personalize the content and advertising you see.
Visit our Privacy Policy to learn more. By continuing to use the site, you agree to this use of cookies and data.
EN

Hourly Weather Clorinda

Today, 14 August, Friday

Time Temperature Precipitation Wind Pressure Humidity
00:00 +13°C° 0 mm 1 mps 753 mmHg 93%
01:00 +13°C° 0 mm 1 mps 752 mmHg 93%
02:00 +12°C° 0 mm 1 mps 752 mmHg 93%
03:00 +12°C° 0 mm 1 mps 752 mmHg 94%
04:00 +12°C° 0 mm 1 mps 751 mmHg 94%
05:00 +12°C° 0 mm 2 mps 750 mmHg 95%
06:00 +13°C° 0 mm 2 mps 750 mmHg 89%
07:00 +14°C° 0 mm 2 mps 750 mmHg 84%
08:00 +16°C° 0 mm 2 mps 751 mmHg 76%
09:00 +17°C° 0.5 mm 2 mps 750 mmHg 75%
10:00 +18°C° 0.5 mm 2 mps 750 mmHg 74%
11:00 +20°C° 0.5 mm 3 mps 749 mmHg 73%
12:00 +20°C° 0.1 mm 2 mps 749 mmHg 73%
13:00 +21°C° 0.1 mm 2 mps 748 mmHg 72%
14:00 +23°C° 0.1 mm 1 mps 747 mmHg 71%
15:00 +23°C° 0.3 mm 2 mps 747 mmHg 75%
16:00 +21°C° 0.3 mm 2 mps 747 mmHg 80%
17:00 +21°C° 0.3 mm 3 mps 747 mmHg 84%
18:00 +20°C° 0 mm 3 mps 748 mmHg 87%
19:00 +19°C° 0 mm 3 mps 748 mmHg 90%
20:00 +18°C° 0 mm 3 mps 749 mmHg 93%
21:00 +17°C° 0.1 mm 3 mps 749 mmHg 94%
22:00 +17°C° 0.1 mm 3 mps 750 mmHg 95%
23:00 +17°C° 0.1 mm 3 mps 750 mmHg 96%

Tomorrow, 15 August, Saturday

Time Temperature Precipitation Wind Pressure Humidity
00:00 +17°C° 0 mm 2 mps 750 mmHg 96%
01:00 +16°C° 0 mm 2 mps 750 mmHg 96%
02:00 +16°C° 0 mm 2 mps 750 mmHg 96%
03:00 +16°C° 0 mm 2 mps 750 mmHg 95%
04:00 +15°C° 0 mm 2 mps 751 mmHg 95%
05:00 +15°C° 0 mm 2 mps 751 mmHg 95%
06:00 +16°C° 0 mm 2 mps 751 mmHg 90%
07:00 +17°C° 0 mm 3 mps 752 mmHg 84%
08:00 +17°C° 0 mm 3 mps 752 mmHg 79%
09:00 +19°C° 0.1 mm 3 mps 752 mmHg 71%
10:00 +21°C° 0.1 mm 3 mps 752 mmHg 62%
11:00 +23°C° 0.1 mm 4 mps 752 mmHg 54%
12:00 +25°C° 0.1 mm 3 mps 751 mmHg 52%
13:00 +25°C° 0.1 mm 3 mps 751 mmHg 51%
14:00 +26°C° 0.1 mm 3 mps 750 mmHg 49%
15:00 +25°C° 0 mm 3 mps 750 mmHg 53%
16:00 +24°C° 0 mm 3 mps 750 mmHg 57%
17:00 +23°C° 0 mm 2 mps 751 mmHg 61%
18:00 +21°C° 0 mm 3 mps 751 mmHg 65%
19:00 +20°C° 0 mm 3 mps 752 mmHg 68%
20:00 +18°C° 0 mm 3 mps 752 mmHg 72%
21:00 +18°C° 0 mm 3 mps 752 mmHg 76%
22:00 +17°C° 0 mm 3 mps 753 mmHg 80%
23:00 +16°C° 0 mm 2 mps 753 mmHg 84%

Day after tomorrow, 16 August, Sunday

Time Temperature Precipitation Wind Pressure Humidity
00:00 +16°C° 0 mm 3 mps 754 mmHg 83%
01:00 +14°C° 0 mm 3 mps 754 mmHg 83%
02:00 +14°C° 0 mm 4 mps 754 mmHg 82%
03:00 +13°C° 0 mm 4 mps 754 mmHg 84%
04:00 +13°C° 0 mm 3 mps 754 mmHg 85%
05:00 +12°C° 0 mm 3 mps 754 mmHg 87%
06:00 +13°C° 0 mm 3 mps 754 mmHg 83%
07:00 +13°C° 0 mm 4 mps 754 mmHg 79%
08:00 +14°C° 0 mm 4 mps 755 mmHg 75%
09:00 +17°C° 0 mm 3 mps 755 mmHg 67%
10:00 +20°C° 0 mm 3 mps 754 mmHg 59%
11:00 +22°C° 0 mm 3 mps 754 mmHg 51%
12:00 +24°C° 0 mm 3 mps 754 mmHg 48%
13:00 +25°C° 0 mm 3 mps 753 mmHg 44%
14:00 +26°C° 0 mm 3 mps 752 mmHg 41%
15:00 +25°C° 0 mm 3 mps 752 mmHg 46%
16:00 +22°C° 0 mm 3 mps 752 mmHg 50%
17:00 +21°C° 0 mm 3 mps 752 mmHg 55%
18:00 +20°C° 0 mm 3 mps 752 mmHg 58%
19:00 +18°C° 0 mm 3 mps 752 mmHg 61%
20:00 +17°C° 0 mm 3 mps 752 mmHg 64%
21:00 +17°C° 0 mm 3 mps 753 mmHg 67%
22:00 +16°C° 0 mm 3 mps 753 mmHg 69%
23:00 +15°C° 0 mm 2 mps 753 mmHg 71%

17 August, Monday

Time Temperature Precipitation Wind Pressure Humidity
00:00 +15°C° 0 mm 2 mps 753 mmHg 75%
01:00 +14°C° 0 mm 2 mps 753 mmHg 79%
02:00 +14°C° 0 mm 1 mps 752 mmHg 83%
03:00 +14°C° 0 mm 2 mps 752 mmHg 82%
04:00 +14°C° 0 mm 2 mps 752 mmHg 82%
05:00 +15°C° 0 mm 2 mps 752 mmHg 81%
06:00 +15°C° 0 mm 2 mps 752 mmHg 80%
07:00 +15°C° 0 mm 2 mps 753 mmHg 78%
08:00 +16°C° 0 mm 2 mps 753 mmHg 77%
09:00 +20°C° 0 mm 1 mps 753 mmHg 67%
10:00 +24°C° 0 mm 1 mps 753 mmHg 58%
11:00 +25°C° 0 mm 0 mps 753 mmHg 48%
12:00 +26°C° 0 mm 0 mps 752 mmHg 47%
13:00 +26°C° 0 mm 0 mps 751 mmHg 45%
14:00 +27°C° 0 mm 0 mps 750 mmHg 44%
15:00 +28°C° 0 mm 1 mps 749 mmHg 48%
16:00 +26°C° 0 mm 1 mps 749 mmHg 53%
17:00 +25°C° 0 mm 1 mps 749 mmHg 58%
18:00 +23°C° 0 mm 2 mps 749 mmHg 60%
19:00 +20°C° 0 mm 2 mps 749 mmHg 62%
20:00 +19°C° 0 mm 2 mps 749 mmHg 65%
21:00 +18°C° 0 mm 2 mps 749 mmHg 68%
22:00 +17°C° 0 mm 2 mps 749 mmHg 72%
23:00 +16°C° 0 mm 1 mps 749 mmHg 75%

18 August, Tuesday

Time Temperature Precipitation Wind Pressure Humidity
00:00 +16°C° 0 mm 1 mps 749 mmHg 78%
01:00 +16°C° 0 mm 1 mps 748 mmHg 80%
02:00 +15°C° 0 mm 1 mps 748 mmHg 83%
03:00 +15°C° 0 mm 1 mps 747 mmHg 84%
04:00 +15°C° 0 mm 1 mps 747 mmHg 86%
05:00 +15°C° 0 mm 1 mps 747 mmHg 88%
06:00 +16°C° 0 mm 1 mps 747 mmHg 83%
07:00 +18°C° 0 mm 2 mps 748 mmHg 79%
08:00 +19°C° 0 mm 2 mps 748 mmHg 74%
09:00 +21°C° 0 mm 2 mps 748 mmHg 70%
10:00 +25°C° 0 mm 3 mps 748 mmHg 65%
11:00 +27°C° 0 mm 3 mps 747 mmHg 60%
12:00 +28°C° 0 mm 3 mps 747 mmHg 58%
13:00 +28°C° 0 mm 3 mps 746 mmHg 56%
14:00 +29°C° 0 mm 3 mps 745 mmHg 53%
15:00 +28°C° 0 mm 2 mps 745 mmHg 58%
16:00 +27°C° 0 mm 2 mps 745 mmHg 62%
17:00 +26°C° 0 mm 2 mps 745 mmHg 66%
18:00 +25°C° 0 mm 2 mps 745 mmHg 73%
19:00 +23°C° 0 mm 1 mps 746 mmHg 81%
20:00 +21°C° 0 mm 1 mps 746 mmHg 88%
21:00 +21°C° 0 mm 1 mps 747 mmHg 90%
22:00 +20°C° 0 mm 2 mps 747 mmHg 92%
23:00 +19°C° 0 mm 2 mps 747 mmHg 94%

19 August, Wednesday

Time Temperature Precipitation Wind Pressure Humidity
00:00 +19°C° 0 mm 2 mps 747 mmHg 95%
01:00 +19°C° 0 mm 2 mps 747 mmHg 96%
02:00 +19°C° 0 mm 2 mps 747 mmHg 97%
03:00 +19°C° 0.1 mm 2 mps 747 mmHg 96%
04:00 +19°C° 0.1 mm 2 mps 748 mmHg 96%
05:00 +19°C° 0.1 mm 2 mps 748 mmHg 95%
06:00 +19°C° 0.1 mm 2 mps 749 mmHg 92%
07:00 +19°C° 0.1 mm 2 mps 750 mmHg 89%
08:00 +20°C° 0.1 mm 2 mps 751 mmHg 87%
09:00 +20°C° 0.4 mm 2 mps 751 mmHg 82%
10:00 +20°C° 0.4 mm 3 mps 752 mmHg 78%
11:00 +21°C° 0.4 mm 3 mps 752 mmHg 74%
12:00 +22°C° 0.3 mm 4 mps 752 mmHg 68%
13:00 +22°C° 0.3 mm 5 mps 752 mmHg 62%
14:00 +23°C° 0.3 mm 5 mps 752 mmHg 55%
15:00 +21°C° 0 mm 6 mps 753 mmHg 57%
16:00 +20°C° 0 mm 6 mps 754 mmHg 58%
17:00 +17°C° 0 mm 7 mps 755 mmHg 60%
18:00 +16°C° 0 mm 6 mps 756 mmHg 59%
19:00 +15°C° 0 mm 6 mps 756 mmHg 59%
20:00 +15°C° 0 mm 6 mps 757 mmHg 58%
21:00 +14°C° 0 mm 6 mps 758 mmHg 58%
22:00 +13°C° 0 mm 6 mps 759 mmHg 59%
23:00 +10°C° 0 mm 6 mps 760 mmHg 59%
Show more